Location: Prostejov
(49.4670°N, 17.1170°E)
Time: 11:29:38
(UTC+02:00)

ISS - Pass Details

Date: 24 May 2021
Orbit: 417 x 422 km, 51.6° (Epoch: 13 June)

Event Time Altitude Azimuth Distance (km) Brightness Sun altitude
Rises 21:23:03 0° 278° (W) 2,364 1.1 -6.2°
Reaches altitude 10° 21:25:11 10° 282° (WNW) 1,501 0.1 -6.4°
Maximum altitude 21:28:30 57° 3° (N) 499 -3.1 -6.8°
Drops below altitude 10° 21:31:50 10° 83° (E) 1,503 -1.3 -7.2°
Enters shadow 21:33:38 - 87° (E) 2,232 -0.5 -7.4°
